Voltar ao catálogo

STARLINK-37260

AtivoComunicaçõesVLEO
NORAD 68510·PAYLOAD·🇺🇸 United States

Lançado Mar 30, 2026 de Cape Canaveral Space Force Station

Loading…

Próximas Passagens (próximas 24 horas)

TLE

AtualizadoSource: CelesTrak SupGP

Época: Sep 14, 2026, 23:09 UTC

1 68510C 26068C   26257.96506944  .00030628  00000+0  90504-3 0  2573
2 68510  53.1585 323.6557 0001262  87.7046 284.8197 15.34370999    13

Acompanhe STARLINK-37260 em tempo real com AllMySat

Download on the App Store